Regional Weather Roundup
Issued by NWS

Home | Current Version | Previous Version | Graphics & Text | Print | Product List | Glossary On
Versions: 1 2 3 4 5 6 7 8 9 10 11 12 13 14 15 16 17 18 19 20 21 22 23 24 25 26 27 28 29 30 31 32 33 34 35 36 37 38 39 40 41 42 43 44 45 46 47 48 49 50
000
ASUS43 KMKX 201011
RWRWI

WISCONSIN REGIONAL WEATHER ROUNDUP
NATIONAL WEATHER SERVICE MILWAUKEE/SULLIVAN WI
500 AM CDT WED AUG 20 2014

NOTE: "FAIR" INDICATES FEW OR NO CLOUDS BELOW 12,000 FEET WITH NO
SIGNIFICANT WEATHER AND/OR OBSTRUCTIONS TO VISIBILITY.

WIZ001-002-006>008-014>016-023>028-201100-
NORTHWEST WISCONSIN

CITY           SKY/WX    TMP DP  RH WIND       PRES   REMARKS
SUPERIOR ARPT  CLOUDY    60  59  96 CALM      29.84S
ASHLAND        CLOUDY    59  58  96 CALM      29.85S
HAYWARD        CLOUDY    60  59  96 NE3       29.85S
SIREN          MOCLDY    56  55  98 CALM      29.85S
RICE LAKE      CLOUDY    61  60  96 NE6       29.86S
LADYSMITH      CLOUDY    60  59  96 CALM      29.87R
EAU CLAIRE     MOCLDY    61  61 100 NE3       29.82S
MENOMONIE      FOG       63  62  97 CALM      29.84R VSB 1/4
NEW RICHMOND   FOG       58  58 100 CALM      29.84R VSB 1/2
OSCEOLA        FOG       59  59 100 CALM      29.86R VSB 1/2
$$

WIZ003>005-009-010-017-018-201100-
NORTH CENTRAL WISCONSIN

CITY           SKY/WX    TMP DP  RH WIND       PRES   REMARKS
WOODRUFF       CLOUDY    59  57  91 CALM      29.84R
RHINELANDER    CLOUDY    59  57  93 N3        29.84R
EAGLE RIVER    CLOUDY    57  57 100 N6        29.83R
LAND O LAKES   CLOUDY    56  56  99 N5        29.84R FOG
PHILLIPS       CLOUDY    58  57  96 NW3       29.84R
TOMAHAWK       CLOUDY    58  56  96 CALM      29.84R
MEDFORD        CLOUDY    58  58  99 CALM      29.86R
MERRILL        CLOUDY    60  59  98 NW3       29.84R
$$

WIZ029-030-035-036-043>047-201100-
CENTRAL WISCONSIN

CITY           SKY/WX    TMP DP  RH WIND       PRES   REMARKS
WAUSAU         CLOUDY    60  58  92 NW8       29.83R
MOSINEE        CLOUDY    59  59 100 NW6       29.85R
MARSHFIELD     CLEAR     60  59  96 N3        29.83S
STEVENS POINT  CLOUDY    59  59  99 CALM      29.83S FOG
WAUPACA        CLOUDY    64  63  95 CALM      29.82R
WAUTOMA        MOCLDY    59  59 100 CALM      29.83R
WISC RAPIDS    CLOUDY    61  60  97 CALM      29.84R FOG
CAMP DOUGLAS   MOCLDY    58  58 100 CALM      29.83R
$$

WIZ011>013-019>022-031-037>040-048>050-201100-
NORTHEAST WISCONSIN

CITY           SKY/WX    TMP DP  RH WIND       PRES   REMARKS
ANTIGO         CLOUDY    59  58  99 W6        29.83R
STURGEON BAY   CLOUDY    61  57  88 CALM      29.79R
GREEN BAY      MOCLDY    61  60  97 NW7       29.80R
MANITOWOC      CLOUDY    63  62  97 CALM      29.80R
APPLETON       FOG       59  59 100 W7        29.81R VSB 1/2
CLINTONVILLE   CLOUDY    61  61 100 CALM      29.81R
OSHKOSH        PTCLDY    63  62  97 W5        29.81R
$$

WIZ032>034-041-042-053>061-201100-
SOUTHWEST WISCONSIN

CITY           SKY/WX    TMP DP  RH WIND       PRES   REMARKS
LA CROSSE      CLEAR     65  63  93 SE3       29.81S
SPARTA         PTCLDY    57  56  97 CALM      29.84R
VIROQUA        FAIR      62  62 100 CALM      29.83S
BOSCOBEL       FOG       62  60  93 CALM      29.82S VSB 3/4
PRAIRIE DU CHI CLEAR     63  61  93 CALM      29.81S
PLATTEVILLE    FAIR      63  62  94 CALM      29.83F
$$

WIZ056-057-062-063-064-067-068-201100-
SOUTH CENTRAL WISCONSIN

CITY           SKY/WX    TMP DP  RH WIND       PRES   REMARKS
BARABOO/DELLS  PTCLDY    61  59  94 CALM      29.82S
LONE ROCK      FOG       65  61  87 CALM      29.82F VSB 1/4
WATERTOWN      PTCLDY    61  61  99 CALM      29.82R
MADISON        PTCLDY    63  61  93 CALM      29.82S
MIDDLETON      PTSUNNY   63  63 100 CALM      29.83S
MONROE         PTCLDY    64  63  94 W8        29.83S
JANESVILLE     PTCLDY    64  63  94 CALM      29.82R
$$

WIZ051-052-058>065-066-070>072-201100-
SOUTHEAST WISCONSIN

CITY           SKY/WX    TMP DP  RH WIND       PRES   REMARKS
MILWAUKEE      PTCLDY    67  61  81 W5        29.81R
WAUKESHA       CLEAR     61  59  94 CALM      29.83R
MILWAUKEE/TIMM CLEAR     63  59  88 W5        29.82R
RACINE         CLEAR     66  62  87 W5        29.83R
BURLINGTON     CLEAR     59  59  99 SW3       29.82S FOG
KENOSHA        CLEAR     63  62  97 W5        29.82R
FOND DU LAC    MOCLDY    62  60  93 CALM      29.81R
SHEBOYGAN      MOCLDY    61  60  97 W5        29.80R
WEST BEND      CLEAR     61  59  94 CALM      29.82R
JUNEAU         CLOUDY    63  37  37 CALM      29.83S
$$

LSZ147-162-201100-
LAKE SUPERIOR

STATION/POSITION TIME  TEMP    WIND        PRES    WAVE
                       AIR SEA DIR/SP/G            HT/PER
                 (UTC) (F)     (DEG/KT/KT) (MB)    (FT/S)
W MID LAKE BUOY  0950   58 58  270/  6/  6 1009.8R   1
DEVILS ISLAND    1000   60     270/  5/  6 1010.5R
PORT WING        0900   61     200/  1/  2 1010.8R
SAXON HARBOR     0900   60        CALM     1010.5R
$$

LMZ867-665-643>646-201100-
LAKE MICHIGAN

STATION/POSITION TIME  TEMP    WIND        PRES    WAVE
                       AIR SEA DIR/SP/G            HT/PER
                 (UTC) (F)     (DEG/KT/KT) (MB)    (FT/S)
N MID LAKE BUOY  0950   61 62  300/  8/ 10 1007.0R   1/ 5
NORTHPORT PIER   0900   63     330/ 10/ 13 1007.5S
SISTER BAY       0911   63     340/ 10/ 11   N/A
KEWAUNEE LAKESHO 0900   64     310/  2/  3 1007.3R
SHEBOYGAN LAKESH 1000   65 67  290/  6/  7 1009.0R
ATWATER BUOY     1000   68     280/  6     1010.4R
MILWAUKEE LAKESH 0900   69     280/  5/  8   N/A
S MID LAKE BUOY  0950   67 66  280/  6/  6 1009.1R   1
KENOSHA   LAKESH 1000   69     290/  6/  8 1009.5R
$$

TC  - TEMPERATURE IN CELSIUS
VSB - VISIBILITY IN STATUTE MILES
WCI - WIND CHILL INDEX
HX  - HEAT INDEX




USA.gov is the U.S. government's official web portal to all federal, state and local government web resources and services.